Stations météo

Publicité
Larnaca Airport, Chypre (17609): Température de l'air & dewpoint: 19.09.2018 17:00:00 - 25.09.2018 17:00:00 (EEST)Larnaca Airport, Chypre (17609): Vitesse du vent: 19.09.2018 17:00:00 - 25.09.2018 17:00:00 (EEST)Larnaca Airport, Chypre (17609): Direction du vent: 19.09.2018 17:00:00 - 25.09.2018 17:00:00 (EEST)Larnaca Airport, Chypre (17609): reduced air pressure: 19.09.2018 17:00:00 - 25.09.2018 17:00:00 (EEST)Larnaca Airport, Chypre (17609): visibility: 19.09.2018 17:00:00 - 25.09.2018 17:00:00 (EEST)
Date & Time tt [°C] td [°C] ff [km/h] ff [knt] dd ppp [hPa] vv [km]
25.09.2018 17:00:00 31,0 20,0 18 10 SSW - 10
25.09.2018 16:00:00 31,0 22,0 21 11 SSW - 10
25.09.2018 15:00:00 31,2 21,4 21 11 SSW 1010,8 15
25.09.2018 14:00:00 31,0 21,0 18 10 S - 10
25.09.2018 13:00:00 30,0 22,0 16 9 S - 10
25.09.2018 12:00:00 29,4 22,1 13 7 SE 1012,1 10
25.09.2018 11:00:00 29,0 20,0 9 5 ESE - 10
25.09.2018 10:00:00 29,0 22,0 5 3 E - 10
25.09.2018 09:00:00 28,1 20,9 5 3 NNW 1012,0 10
25.09.2018 08:00:00 25,0 17,0 9 5 NW - 10
25.09.2018 07:00:00 21,0 17,0 11 6 NW - 10
25.09.2018 06:00:00 21,2 18,8 5 3 NNW 1011,7 20
25.09.2018 05:00:00 21,0 18,0 8 4 NNW - 10
25.09.2018 04:00:00 21,0 14,0 8 4 NNW - 10
25.09.2018 03:00:00 21,5 14,6 4 2 NW 1011,4 10
25.09.2018 02:00:00 22,0 15,0 5 3 W - 10
25.09.2018 01:00:00 23,0 16,0 5 3 NNW - 10
25.09.2018 00:00:00 24,3 16,8 5 3 NW 1012,0 10
24.09.2018 23:00:00 24,0 17,0 4 2 - - 10
24.09.2018 22:00:00 26,0 17,0 5 3 N - 10
24.09.2018 21:00:00 25,7 17,9 5 3 NNW 1012,2 25
24.09.2018 20:00:00 27,0 22,0 11 6 WSW - 10
24.09.2018 19:00:00 28,0 22,0 11 6 SSW - 10
24.09.2018 18:00:00 29,7 15,8 11 6 SSW 1011,7 25
24.09.2018 17:00:00 30,0 19,0 15 8 S - 10
24.09.2018 16:00:00 31,0 20,0 11 6 S - 10
24.09.2018 15:00:00 30,5 20,7 13 7 S 1013,0 25
24.09.2018 14:00:00 30,0 22,0 13 7 SSE - 10
24.09.2018 13:00:00 31,0 20,0 13 7 SE - 10
24.09.2018 12:00:00 30,2 20,4 11 6 ESE 1014,3 10
24.09.2018 11:00:00 29,0 21,0 9 5 ESE - 10
24.09.2018 10:00:00 29,0 22,0 9 5 ENE - 10
24.09.2018 09:00:00 28,0 19,5 8 4 NE 1014,6 10
24.09.2018 08:00:00 25,0 13,0 9 5 NW - 10
24.09.2018 07:00:00 20,0 10,0 9 5 NW - 10
24.09.2018 06:00:00 20,3 10,4 8 4 NNW 1014,2 25
24.09.2018 05:00:00 22,0 9,0 9 5 NE - 10
24.09.2018 04:00:00 22,0 13,0 5 3 NNW - 10
24.09.2018 03:00:00 22,1 10,3 8 4 W 1013,9 25
24.09.2018 02:00:00 23,0 11,0 5 3 W - 10
24.09.2018 01:00:00 24,0 12,0 9 5 WNW - 10
24.09.2018 00:00:00 24,1 16,1 8 4 WNW 1014,7 20
23.09.2018 23:00:00 25,0 20,0 8 4 WNW - 10
23.09.2018 22:00:00 25,0 19,0 8 4 NW - 10
23.09.2018 21:00:00 25,4 15,1 5 3 NNW 1014,3 10
23.09.2018 20:00:00 27,0 22,0 9 5 SW - 10
23.09.2018 19:00:00 27,0 22,0 16 9 SW - 10
23.09.2018 18:00:00 29,1 18,8 18 10 SW 1013,3 10
23.09.2018 17:00:00 31,0 16,0 21 11 SW - 10
23.09.2018 16:00:00 31,0 17,0 24 13 SW - 10
23.09.2018 15:00:00 31,5 16,3 24 13 SSW 1013,8 10
23.09.2018 14:00:00 31,0 20,0 21 11 S - 10
23.09.2018 13:00:00 31,0 19,0 18 10 S - 10
23.09.2018 12:00:00 30,6 18,3 16 9 S 1014,8 10
23.09.2018 11:00:00 30,0 17,0 13 7 SE - 10
23.09.2018 10:00:00 30,0 16,0 8 4 ESE - 10
23.09.2018 09:00:00 27,3 16,0 4 2 - 1014,4 10
23.09.2018 08:00:00 25,0 18,0 4 2 - - 10
23.09.2018 07:00:00 20,0 16,0 4 2 NNW - 10
23.09.2018 06:00:00 21,2 16,8 2 1 NNW 1013,5 10
23.09.2018 05:00:00 22,0 15,0 9 5 NW - 10
23.09.2018 04:00:00 21,0 15,0 11 6 NW - 10
23.09.2018 03:00:00 20,9 14,8 5 3 NW 1013,1 20
23.09.2018 02:00:00 22,0 15,0 8 4 NW - 10
23.09.2018 01:00:00 23,0 20,0 5 3 NNW - 10
23.09.2018 00:00:00 24,2 22,1 4 2 W 1013,3 20
22.09.2018 23:00:00 25,0 20,0 5 3 NNW - 10
22.09.2018 22:00:00 26,0 18,0 9 5 NNW - 10
22.09.2018 21:00:00 26,9 16,5 11 6 WNW 1012,7 25
22.09.2018 20:00:00 28,0 12,0 13 7 NW - 10
22.09.2018 19:00:00 31,0 10,0 9 5 NW - 10
22.09.2018 18:00:00 31,8 16,1 16 9 SW 1011,8 30
22.09.2018 17:00:00 32,0 17,0 22 12 SW - 10
22.09.2018 16:00:00 31,0 18,0 29 16 SW - 10
22.09.2018 15:00:00 31,9 19,5 26 14 SSW 1012,2 10
22.09.2018 14:00:00 33,0 18,0 22 12 SSW - 10
22.09.2018 13:00:00 31,0 18,0 21 11 S - 10
22.09.2018 12:00:00 30,8 18,5 18 10 S 1013,2 10
22.09.2018 11:00:00 31,0 17,0 18 10 S - 10
22.09.2018 10:00:00 31,0 15,0 15 8 SSW - 10
22.09.2018 09:00:00 29,4 15,1 8 4 SW 1013,0 10
22.09.2018 08:00:00 25,0 11,0 8 4 NNW - 10
22.09.2018 07:00:00 21,0 10,0 8 4 WNW - 10
22.09.2018 06:00:00 21,3 14,0 4 2 NW 1012,4 10
22.09.2018 05:00:00 24,0 18,0 5 3 NW - 10
22.09.2018 04:00:00 23,0 19,0 8 4 W - 10
22.09.2018 03:00:00 22,9 15,0 5 3 WNW 1012,0 30
22.09.2018 02:00:00 25,0 14,0 9 5 W - 10
22.09.2018 01:00:00 25,0 12,0 4 2 - - 10
22.09.2018 00:00:00 25,0 11,2 2 1 ESE 1012,1 30
21.09.2018 23:00:00 26,0 14,0 9 5 NNE - 10
21.09.2018 22:00:00 27,0 15,0 11 6 NNE - 10
21.09.2018 21:00:00 27,3 17,2 9 5 N 1011,9 20
21.09.2018 20:00:00 27,0 25,0 4 2 S - 10
21.09.2018 19:00:00 27,0 24,0 11 6 SW - 10
21.09.2018 18:00:00 29,1 21,3 16 9 SSW 1010,9 10
21.09.2018 17:00:00 31,0 20,0 18 10 S - 10
21.09.2018 16:00:00 32,0 17,0 21 11 S - 10
21.09.2018 15:00:00 32,9 15,0 18 10 S 1010,9 10
21.09.2018 14:00:00 32,0 19,0 13 7 S - 10
21.09.2018 13:00:00 31,0 20,0 16 9 S - 10
21.09.2018 12:00:00 30,8 18,5 15 8 SSE 1011,8 17
21.09.2018 11:00:00 30,0 22,0 11 6 E - 10
21.09.2018 10:00:00 31,0 18,0 11 6 NNE - 10
21.09.2018 09:00:00 28,5 17,1 9 5 NW 1011,8 10
21.09.2018 08:00:00 25,0 16,0 5 3 NNW - 10
21.09.2018 07:00:00 22,0 20,0 4 2 - - 10
21.09.2018 06:00:00 21,0 16,4 11 6 NNW 1010,8 25
21.09.2018 05:00:00 22,0 12,0 9 5 NNW - 10
21.09.2018 04:00:00 22,0 14,0 5 3 NW - 10
21.09.2018 03:00:00 22,7 15,3 5 3 NNW 1010,5 25
21.09.2018 02:00:00 23,0 19,0 5 3 WNW - 10
21.09.2018 01:00:00 24,0 16,0 9 5 NW - 10
21.09.2018 00:00:00 24,6 17,8 5 3 NW 1010,6 10
20.09.2018 23:00:00 26,0 16,0 5 3 NNW - 10
20.09.2018 22:00:00 27,0 16,0 9 5 NNW - 10
20.09.2018 21:00:00 28,6 14,8 0 0 N 1010,6 30
20.09.2018 20:00:00 27,0 23,0 5 3 SW - 10
20.09.2018 19:00:00 28,0 23,0 13 7 SSW - 10
20.09.2018 18:00:00 29,3 23,3 18 10 SSW 1009,8 10
20.09.2018 17:00:00 31,0 20,0 18 10 SW - 10
20.09.2018 16:00:00 32,0 16,0 21 11 SSW - 10
20.09.2018 15:00:00 31,8 18,4 22 12 SSW 1010,3 10
20.09.2018 14:00:00 32,0 20,0 21 11 S - 10
20.09.2018 13:00:00 32,0 20,0 21 11 SSW - 10
20.09.2018 12:00:00 31,5 16,3 15 8 SSW 1011,3 10
20.09.2018 11:00:00 30,0 20,0 13 7 SSE - 10
20.09.2018 10:00:00 31,0 20,0 9 5 ESE - 10
20.09.2018 09:00:00 29,2 19,5 4 2 - 1011,6 10
20.09.2018 08:00:00 25,0 15,0 5 3 NNW - 10
20.09.2018 07:00:00 22,0 15,0 8 4 NW - 10
20.09.2018 06:00:00 21,5 13,2 4 2 NW 1010,7 25
20.09.2018 05:00:00 22,0 9,0 8 4 WNW - 10
20.09.2018 04:00:00 23,0 9,0 4 2 - - 10
20.09.2018 03:00:00 22,7 10,5 5 3 WNW 1010,3 25
20.09.2018 02:00:00 24,0 11,0 4 2 - - 10
20.09.2018 01:00:00 24,0 13,0 0 0 N - 10
20.09.2018 00:00:00 25,0 13,2 2 1 SW 1010,7 10
19.09.2018 23:00:00 26,0 13,0 4 2 W - 10
19.09.2018 22:00:00 26,0 14,0 5 3 WNW - 10
19.09.2018 21:00:00 26,9 24,5 5 3 W 1010,9 25
19.09.2018 20:00:00 28,0 23,0 9 5 SW - 10
19.09.2018 19:00:00 29,0 24,0 13 7 SSW - 10
19.09.2018 18:00:00 30,4 21,2 13 7 SSW 1009,9 10
19.09.2018 17:00:00 33,0 17,0 16 9 SSW - 10

tt = Température de l'air
td = dewpoint
ff = Vitesse du vent
dd = Direction du vent
ppp = reduced air pressure
vv = visibility

stations d'obs. à proximité